This is the latest recevied weather packets stored in our database for station/object CT2IRJ-11. If no packets are shown the sender has not sent any weather packets the latest 10 day(s).
| Time | Temp. | Humidity | Pressure | Rain* | Wind** | Luminosity | Snow |
|---|---|---|---|---|---|---|---|
| 1777553311 | 20.56° C | 65% | 1017.3 hPa | 0 mm | - | 454 W/m² | - |
| 1777553011 | 20.56° C | 65% | 1017.3 hPa | 0 mm | - | 377 W/m² | - |
| 1777552709 | 20.56° C | 64% | 1017.3 hPa | 0 mm | - | 314 W/m² | - |
| 1777552410 | 20.56° C | 66% | 1017.6 hPa | 0 mm | - | 231 W/m² | - |
| 1777552110 | 20° C | 67% | 1017.6 hPa | 0 mm | - | 193 W/m² | - |
| 1777551810 | 20° C | 65% | 1017.3 hPa | 0 mm | - | 216 W/m² | - |
| 1777551509 | 20° C | 67% | 1017.3 hPa | 0 mm | - | 254 W/m² | - |
| 1777551209 | 20° C | 67% | 1017.3 hPa | 0 mm | - | 328 W/m² | - |
| 1777550910 | 20.56° C | 67% | 1017.3 hPa | 0 mm | - | 342 W/m² | - |
| 1777550611 | 20.56° C | 67% | 1017.3 hPa | 0 mm | - | 404 W/m² | - |
| 1777550310 | 20° C | 69% | 1016.9 hPa | 0 mm | - | 397 W/m² | - |
| 1777550012 | 19.44° C | 71% | 1017.3 hPa | 0 mm | - | 376 W/m² | - |
| 1777549710 | 18.89° C | 73% | 1017.6 hPa | 0 mm | - | 326 W/m² | - |
| 1777549410 | 18.89° C | 75% | 1017.3 hPa | 0 mm | - | 275 W/m² | - |
| 1777549110 | 18.33° C | 77% | 1017.3 hPa | 0 mm | - | 217 W/m² | - |
| 1777548810 | 18.33° C | 76% | 1017.6 hPa | 0 mm | - | 177 W/m² | - |
| 1777548510 | 17.78° C | 78% | 1017.3 hPa | 0 mm | - | 142 W/m² | - |
| 1777548210 | 17.78° C | 79% | 1017.3 hPa | 0 mm | - | 121 W/m² | - |
| 1777547910 | 17.22° C | 79% | 1017.6 hPa | 0 mm | - | 102 W/m² | - |
| 1777547610 | 17.78° C | 79% | 1017.3 hPa | 0 mm | - | 77 W/m² | - |
| 1777547310 | 17.78° C | 80% | 1017.3 hPa | 0 mm | - | 68 W/m² | - |
| 1777547011 | 17.78° C | 79% | 1017.3 hPa | 0 mm | - | 73 W/m² | - |
| 1777546709 | 17.78° C | 79% | 1017.3 hPa | 0 mm | - | 70 W/m² | - |
| 1777546410 | 17.78° C | 77% | 1017.3 hPa | 0 mm | - | 82 W/m² | - |
| 1777546109 | 17.22° C | 79% | 1017.3 hPa | 0 mm | - | 111 W/m² | - |
* Rain latest hour (hover to see other rain measurements)
** Current wind speed in m/s (hover to see current wind gust speed)